,,,PA_Meas_PMT16A,,PR_Meas_QMR101_102,,RH_Meas_QMH101,,SR_Meas_QMS101,,TA_Meas_QMH101,,GenWind,,GenWind,
date,time,status,PA,status,PR,status,RH,status,SR,status,TA,status,DirAvg,status,SpdAvg,
2009-08-10, 00:00:04,VALID,1000.29,VALID,0,VALID,82.11,VALID,0,VALID,23.3695,VALID,345,VALID,0.55625,
2009-08-10, 00:01:04,VALID,1000.26,VALID,0,VALID,82.3694,VALID,0,VALID,23.3305,VALID,345,VALID,0.660547,
2009-08-10, 00:02:04,VALID,1000.26,VALID,0,VALID,82.522,VALID,0,VALID,23.2932,VALID,345,VALID,0.357031,
2009-08-10, 00:03:04,VALID,1000.28,VALID,0,VALID,82.6364,VALID,0,VALID,23.2524,VALID,345,VALID,0.320703,
2009-08-10, 00:04:04,VALID,1000.32,VALID,0,VALID,82.85,VALID,0,VALID,23.1957,VALID,345,VALID,0.19375,
2009-08-10, 00:05:04,VALID,1000.26,VALID,0,VALID,83.1018,VALID,0,VALID,23.1566,VALID,345,VALID,0.253906,
2009-08-10, 00:06:04,VALID,1000.28,VALID,0,VALID,83.468,VALID,0,VALID,23.0981,VALID,345,VALID,0.533203,
2009-08-10, 00:07:04,VALID,1000.29,VALID,0,VALID,83.7656,VALID,0,VALID,23.0573,VALID,345,VALID,0.587891,
2009-08-10, 00:08:04,VALID,1000.29,VALID,0,VALID,83.819,VALID,0,VALID,23.0378,VALID,345,VALID,0.651563,
2009-08-10, 00:09:04,VALID,1000.28,VALID,0,VALID,84.1547,VALID,0,VALID,23.0573,VALID,345,VALID,0.746875,
2009-08-10, 00:10:04,VALID,1000.33,VALID,0,VALID,84.0632,VALID,0,VALID,23.0573,VALID,345,VALID,0.299609,
2009-08-10, 00:11:04,VALID,1000.32,VALID,0,VALID,84.1929,VALID,0,VALID,23.0201,VALID,345,VALID,0.327734,
2009-08-10, 00:12:04,VALID,1000.35,VALID,0,VALID,84.6964,VALID,0,VALID,22.9793,VALID,345,VALID,0.4125,
2009-08-10, 00:13:04,VALID,1000.37,VALID,0,VALID,84.6659,VALID,0,VALID,22.9598,VALID,345,VALID,0.178516,
2009-08-10, 00:14:04,VALID,1000.34,VALID,0,VALID,84.6277,VALID,0,VALID,22.9598,VALID,345,VALID,0.2875,
2009-08-10, 00:15:04,VALID,1000.34,VALID,0,VALID,84.2157,VALID,0,VALID,22.9793,VALID,349,VALID,0.368359,
2009-08-10, 00:16:04,VALID,1000.37,VALID,0,VALID,84.7498,VALID,0,VALID,22.9013,VALID,41,VALID,0.519531,
2009-08-10, 00:17:04,VALID,1000.31,VALID,0,VALID,85.1084,VALID,0,VALID,22.8427,VALID,41,VALID,0.694141,
2009-08-10, 00:18:04,VALID,1000.34,VALID,0,VALID,85.1389,VALID,0,VALID,22.8232,VALID,41,VALID,0.585547,
2009-08-10, 00:19:04,VALID,1000.35,VALID,0,VALID,84.8719,VALID,0,VALID,22.8037,VALID,41,VALID,0.417188,
2009-08-10, 00:20:04,VALID,1000.32,VALID,0,VALID,84.3073,VALID,0,VALID,22.8232,VALID,41,VALID,0.43125,
2009-08-10, 00:21:04,VALID,1000.34,VALID,0,VALID,84.3531,VALID,0,VALID,22.8037,VALID,41,VALID,0.623438,
2009-08-10, 00:22:04,VALID,1000.35,VALID,0,VALID,84.5972,VALID,0,VALID,22.8037,VALID,40,VALID,0.582031,
2009-08-10, 00:23:04,VALID,1000.34,VALID,0,VALID,84.4904,VALID,0,VALID,22.8427,VALID,40,VALID,0.571484,
2009-08-10, 00:24:04,VALID,1000.35,VALID,0,VALID,85.1694,VALID,0,VALID,22.9225,VALID,40,VALID,0.708984,
2009-08-10, 00:25:04,VALID,1000.36,VALID,0,VALID,84.9253,VALID,0,VALID,22.9403,VALID,40,VALID,0.728906,
2009-08-10, 00:26:04,VALID,1000.35,VALID,0,VALID,84.6125,VALID,0,VALID,22.9793,VALID,40,VALID,0.486719,
2009-08-10, 00:27:04,VALID,1000.36,VALID,0,VALID,84.5362,VALID,0,VALID,22.9615,VALID,40,VALID,0.597266,
2009-08-10, 00:28:04,VALID,1000.34,VALID,0,VALID,85.261,VALID,0,VALID,22.9615,VALID,40,VALID,0.661719,
2009-08-10, 00:29:04,VALID,1000.33,VALID,0,VALID,85.0626,VALID,0,VALID,22.9811,VALID,40,VALID,0.7,
2009-08-10, 00:30:04,VALID,1000.31,VALID,0,VALID,84.8872,VALID,0,VALID,22.9615,VALID,40,VALID,0.832812,
2009-08-10, 00:31:04,VALID,1000.34,VALID,0,VALID,84.9482,VALID,0,VALID,22.8623,VALID,23,VALID,0.779297,
2009-08-10, 00:32:04,VALID,1000.31,VALID,0,VALID,85.0169,VALID,0,VALID,22.7452,VALID,22,VALID,0.447656,
2009-08-10, 00:33:04,VALID,1000.34,VALID,0,VALID,85.4517,VALID,0,VALID,22.6884,VALID,22,VALID,0.192188,
2009-08-10, 00:34:04,VALID,1000.33,VALID,0,VALID,86.7259,VALID,0,VALID,22.6477,VALID,22,VALID,0.320703,
2009-08-10, 00:35:04,VALID,1000.32,VALID,0,VALID,86.8098,VALID,0,VALID,22.6689,VALID,22,VALID,0.487891,
2009-08-10, 00:36:04,VALID,1000.29,VALID,0,VALID,87.2676,VALID,0,VALID,22.6494,VALID,22,VALID,0.737891,
2009-08-10, 00:37:04,VALID,1000.29,VALID,0,VALID,86.7259,VALID,0,VALID,22.5892,VALID,22,VALID,0.808203,
2009-08-10, 00:38:04,VALID,1000.28,VALID,0,VALID,86.558,VALID,0,VALID,22.5696,VALID,22,VALID,0.794922,
2009-08-10, 00:39:04,VALID,1000.28,VALID,0,VALID,86.6649,VALID,0,VALID,22.5323,VALID,22,VALID,0.783203,
2009-08-10, 00:40:04,VALID,1000.25,VALID,0,VALID,87.115,VALID,0,VALID,22.5306,VALID,22,VALID,0.684375,
2009-08-10, 00:41:04,VALID,1000.26,VALID,0,VALID,87.4889,VALID,0,VALID,22.5696,VALID,24,VALID,0.694531,
2009-08-10, 00:42:04,VALID,1000.24,VALID,0,VALID,88.1145,VALID,0,VALID,22.6087,VALID,30,VALID,1.06211,
2009-08-10, 00:43:04,VALID,1000.27,VALID,0,VALID,88.1297,VALID,0,VALID,22.6477,VALID,32,VALID,1.06289,
2009-08-10, 00:44:04,VALID,1000.27,VALID,0,VALID,87.7101,VALID,0,VALID,22.6494,VALID,47,VALID,0.872656,
2009-08-10, 00:45:04,VALID,1000.25,VALID,0,VALID,87.4431,VALID,0,VALID,22.5714,VALID,60,VALID,1.00469,
2009-08-10, 00:46:04,VALID,1000.23,VALID,0,VALID,87.8551,VALID,0,VALID,22.5323,VALID,53,VALID,1.41367,
2009-08-10, 00:47:04,VALID,1000.25,VALID,0,VALID,88.0077,VALID,0,VALID,22.5128,VALID,56,VALID,1.2375,
2009-08-10, 00:48:04,VALID,1000.24,VALID,0,VALID,88.1145,VALID,0,VALID,22.5128,VALID,61,VALID,1.07891,
2009-08-10, 00:49:04,VALID,1000.24,VALID,0,VALID,88.3815,VALID,0,VALID,22.5111,VALID,60,VALID,1.17695,
2009-08-10, 00:50:04,VALID,1000.2,VALID,0,VALID,88.496,VALID,0,VALID,22.5306,VALID,53,VALID,1.13828,
2009-08-10, 00:51:04,VALID,1000.21,VALID,0,VALID,88.7554,VALID,0,VALID,22.4916,VALID,51,VALID,0.849609,
2009-08-10, 00:52:04,VALID,1000.23,VALID,0,VALID,88.5951,VALID,0,VALID,22.5128,VALID,51,VALID,0.214453,
2009-08-10, 00:53:04,VALID,1000.21,VALID,0,VALID,88.4502,VALID,0,VALID,22.4331,VALID,51,VALID,0.308984,
2009-08-10, 00:54:04,VALID,1000.21,VALID,0,VALID,88.4807,VALID,0,VALID,22.3746,VALID,50,VALID,0.54375,
2009-08-10, 00:55:04,VALID,1000.19,VALID,0,VALID,88.7859,VALID,0,VALID,22.3568,VALID,48,VALID,1.17773,
2009-08-10, 00:56:04,VALID,1000.21,VALID,0,VALID,88.7172,VALID,0,VALID,22.3178,VALID,52,VALID,0.833594,
2009-08-10, 00:57:04,VALID,1000.21,VALID,0,VALID,88.6333,VALID,0,VALID,22.2576,VALID,55,VALID,0.0722656,
2009-08-10, 00:58:04,VALID,1000.23,VALID,0,VALID,88.7935,VALID,0,VALID,22.2397,VALID,56,VALID,0.461328,
2009-08-10, 00:59:04,VALID,1000.25,VALID,0,VALID,88.9537,VALID,0,VALID,22.2381,VALID,56,VALID,0.169531,
2009-08-10, 01:00:04,VALID,1000.26,VALID,0,VALID,89.0682,VALID,0,VALID,22.2381,VALID,56,VALID,0.233203,
2009-08-10, 01:01:04,VALID,1000.29,VALID,0,VALID,89.1597,VALID,0,VALID,22.2576,VALID,56,VALID,0.300391,
2009-08-10, 01:02:04,VALID,1000.3,VALID,0,VALID,89.3505,VALID,0,VALID,22.2576,VALID,56,VALID,0.684766,
2009-08-10, 01:03:04,VALID,1000.3,VALID,0,VALID,90.0753,VALID,0,VALID,22.3161,VALID,62,VALID,1.01875,
2009-08-10, 01:04:04,VALID,1000.3,VALID,0,VALID,89.6023,VALID,0,VALID,22.3746,VALID,64,VALID,0.738672,
2009-08-10, 01:05:04,VALID,1000.3,VALID,0,VALID,89.2666,VALID,0,VALID,22.3746,VALID,64,VALID,0.709766,
2009-08-10, 01:06:04,VALID,1000.33,VALID,0,VALID,88.969,VALID,0,VALID,22.3763,VALID,69,VALID,0.627734,
2009-08-10, 01:07:04,VALID,1000.32,VALID,0,VALID,88.8088,VALID,0,VALID,22.3373,VALID,90,VALID,0.846094,
2009-08-10, 01:08:04,VALID,1000.27,VALID,0,VALID,88.8088,VALID,0,VALID,22.2966,VALID,74,VALID,1.0043,
2009-08-10, 01:09:04,VALID,1000.23,VALID,0,VALID,88.5799,VALID,0,VALID,22.2771,VALID,58,VALID,1.19961,
2009-08-10, 01:10:04,VALID,1000.24,VALID,0,VALID,88.6409,VALID,0,VALID,22.2576,VALID,57,VALID,1.06367,
2009-08-10, 01:11:04,VALID,1000.27,VALID,0,VALID,88.7325,VALID,0,VALID,22.2381,VALID,57,VALID,0.600781,
2009-08-10, 01:12:04,VALID,1000.26,VALID,0,VALID,88.7096,VALID,0,VALID,22.2592,VALID,62,VALID,0.475391,
2009-08-10, 01:13:04,VALID,1000.27,VALID,0,VALID,88.6638,VALID,0,VALID,22.2202,VALID,63,VALID,0.353906,
2009-08-10, 01:14:04,VALID,1000.2,VALID,0,VALID,88.7859,VALID,0,VALID,22.1795,VALID,63,VALID,0.600391,
2009-08-10, 01:15:04,VALID,1000.19,VALID,0,VALID,88.9995,VALID,0,VALID,22.1405,VALID,63,VALID,0.475,
2009-08-10, 01:16:04,VALID,1000.18,VALID,0,VALID,88.9232,VALID,0,VALID,22.1405,VALID,63,VALID,0.266406,
2009-08-10, 01:17:04,VALID,1000.17,VALID,0,VALID,88.9003,VALID,0,VALID,22.121,VALID,63,VALID,0.314453,
2009-08-10, 01:18:04,VALID,1000.15,VALID,0,VALID,88.8698,VALID,0,VALID,22.1032,VALID,63,VALID,0,
2009-08-10, 01:19:04,VALID,1000.1,VALID,0,VALID,89.03,VALID,0,VALID,22.0625,VALID,63,VALID,0.0046875,
2009-08-10, 01:20:04,VALID,1000.13,VALID,0,VALID,89.3886,VALID,0,VALID,22.1032,VALID,13,VALID,0.35,
2009-08-10, 01:21:04,VALID,1000.11,VALID,0,VALID,89.4039,VALID,0,VALID,22.1617,VALID,13,VALID,0.355469,
2009-08-10, 01:22:04,VALID,1000.08,VALID,0,VALID,89.2818,VALID,0,VALID,22.1812,VALID,13,VALID,0.473437,
2009-08-10, 01:23:04,VALID,1000.08,VALID,0,VALID,89.2589,VALID,0,VALID,22.2007,VALID,13,VALID,0.548437,
2009-08-10, 01:24:04,VALID,1000.08,VALID,0,VALID,89.0071,VALID,0,VALID,22.2186,VALID,9,VALID,0.455469,
2009-08-10, 01:25:04,VALID,1000.05,VALID,0,VALID,88.8469,VALID,0,VALID,22.2771,VALID,9,VALID,0.424219,
2009-08-10, 01:26:04,VALID,1000.01,VALID,0,VALID,88.6867,VALID,0,VALID,22.3161,VALID,9,VALID,0.549219,
2009-08-10, 01:27:04,VALID,1000.04,VALID,0,VALID,88.6486,VALID,0,VALID,22.3763,VALID,9,VALID,0.228516,
2009-08-10, 01:28:04,VALID,1000.01,VALID,0,VALID,88.5799,VALID,0,VALID,22.3941,VALID,9,VALID,0.416797,
2009-08-10, 01:29:04,VALID,999.997,VALID,0,VALID,88.5494,VALID,0,VALID,22.3941,VALID,9,VALID,0.641406,
2009-08-10, 01:30:04,VALID,1000,VALID,0,VALID,88.3434,VALID,0,VALID,22.4136,VALID,17,VALID,0.676953,
2009-08-10, 01:31:04,VALID,999.993,VALID,0,VALID,88.4578,VALID,0,VALID,22.4738,VALID,30,VALID,0.758984,
2009-08-10, 01:32:04,VALID,999.986,VALID,0,VALID,88.2823,VALID,0,VALID,22.4933,VALID,30,VALID,0.576953,
2009-08-10, 01:33:04,VALID,999.966,VALID,0,VALID,87.9466,VALID,0,VALID,22.5128,VALID,30,VALID,0.342969,
2009-08-10, 01:34:04,VALID,999.944,VALID,0,VALID,87.6643,VALID,0,VALID,22.5323,VALID,30,VALID,0.53125,
2009-08-10, 01:35:04,VALID,999.962,VALID,0,VALID,87.5194,VALID,0,VALID,22.5501,VALID,30,VALID,0.359766,
2009-08-10, 01:36:04,VALID,999.949,VALID,0,VALID,87.2294,VALID,0,VALID,22.5892,VALID,30,VALID,0.271094,
2009-08-10, 01:37:04,VALID,999.937,VALID,0,VALID,86.909,VALID,0,VALID,22.6087,VALID,30,VALID,0.414063,
2009-08-10, 01:38:04,VALID,999.929,VALID,0,VALID,87.0082,VALID,0,VALID,22.6087,VALID,30,VALID,0.253906,
2009-08-10, 01:39:04,VALID,999.986,VALID,0,VALID,86.8327,VALID,0,VALID,22.6477,VALID,30,VALID,0.507813,
2009-08-10, 01:40:04,VALID,999.917,VALID,0,VALID,86.7717,VALID,0,VALID,22.6867,VALID,30,VALID,0.425781,
2009-08-10, 01:41:04,VALID,999.926,VALID,0,VALID,86.1766,VALID,0,VALID,22.7469,VALID,30,VALID,0.288672,
2009-08-10, 01:42:04,VALID,999.956,VALID,0,VALID,85.6272,VALID,0,VALID,22.7274,VALID,30,VALID,0.336719,
2009-08-10, 01:43:04,VALID,999.955,VALID,0,VALID,85.9782,VALID,0,VALID,22.6867,VALID,30,VALID,0.106641,
2009-08-10, 01:44:04,VALID,999.922,VALID,0,VALID,86.1918,VALID,0,VALID,22.6672,VALID,30,VALID,0.275391,
2009-08-10, 01:45:04,VALID,999.929,VALID,0,VALID,86.4665,VALID,0,VALID,22.6867,VALID,30,VALID,0.401172,
2009-08-10, 01:46:04,VALID,999.896,VALID,0,VALID,86.352,VALID,0,VALID,22.7469,VALID,30,VALID,0.402734,
2009-08-10, 01:47:04,VALID,999.847,VALID,0,VALID,86.0011,VALID,0,VALID,22.7452,VALID,56,VALID,0.630078,
2009-08-10, 01:48:04,VALID,999.87,VALID,0,VALID,85.7722,VALID,0,VALID,22.786,VALID,99,VALID,0.468359,
2009-08-10, 01:49:04,VALID,999.837,VALID,0,VALID,85.7112,VALID,0,VALID,22.786,VALID,112,VALID,0.351172,
2009-08-10, 01:50:04,VALID,999.809,VALID,0,VALID,85.8409,VALID,0,VALID,22.786,VALID,136,VALID,0.574609,
2009-08-10, 01:51:04,VALID,999.825,VALID,0,VALID,85.8332,VALID,0,VALID,22.8037,VALID,175,VALID,0.817578,
2009-08-10, 01:52:04,VALID,999.825,VALID,0,VALID,85.4212,VALID,0,VALID,22.8818,VALID,172,VALID,1.13047,
2009-08-10, 01:53:04,VALID,999.774,VALID,0,VALID,84.643,VALID,0,VALID,22.9988,VALID,161,VALID,1.05781,
2009-08-10, 01:54:04,VALID,999.748,VALID,0,VALID,83.4909,VALID,0,VALID,23.1566,VALID,155,VALID,1.31953,
2009-08-10, 01:55:04,VALID,999.732,VALID,0,VALID,82.522,VALID,0,VALID,23.2932,VALID,159,VALID,1.06172,
2009-08-10, 01:56:04,VALID,999.742,VALID,0,VALID,81.759,VALID,0,VALID,23.4085,VALID,168,VALID,1.77773,
2009-08-10, 01:57:04,VALID,999.696,VALID,0,VALID,80.6069,VALID,0,VALID,23.6054,VALID,151,VALID,2.54453,
2009-08-10, 01:58:04,VALID,999.667,VALID,0,VALID,79.5998,VALID,0,VALID,23.7793,VALID,136,VALID,1.74805,
2009-08-10, 01:59:04,VALID,999.623,VALID,0,VALID,78.669,VALID,0,VALID,23.9762,VALID,128,VALID,1.67695,
2009-08-10, 02:00:04,VALID,999.625,VALID,0,VALID,78.3333,VALID,0,VALID,24.072,VALID,138,VALID,1.60664,
2009-08-10, 02:01:04,VALID,999.656,VALID,0,VALID,78.5088,VALID,0,VALID,24.0915,VALID,144,VALID,1.49102,
2009-08-10, 02:02:04,VALID,999.612,VALID,0,VALID,78.5927,VALID,0,VALID,24.0933,VALID,140,VALID,2.17539,
2009-08-10, 02:03:04,VALID,999.603,VALID,0,VALID,78.2494,VALID,0,VALID,24.111,VALID,133,VALID,2.09141,
2009-08-10, 02:04:04,VALID,999.626,VALID,0,VALID,78.0205,VALID,0,VALID,24.1909,VALID,143,VALID,1.87227,
2009-08-10, 02:05:04,VALID,999.641,VALID,0,VALID,78.0129,VALID,0,VALID,24.2104,VALID,148,VALID,1.60078,
2009-08-10, 02:06:04,VALID,999.614,VALID,0,VALID,78.0281,VALID,0,VALID,24.2299,VALID,156,VALID,1.61289,
2009-08-10, 02:07:04,VALID,999.577,VALID,0,VALID,77.7992,VALID,0,VALID,24.2299,VALID,153,VALID,2.25625,
2009-08-10, 02:08:04,VALID,999.591,VALID,0,VALID,77.7077,VALID,0,VALID,24.269,VALID,149,VALID,1.65391,
2009-08-10, 02:09:04,VALID,999.575,VALID,0,VALID,77.1812,VALID,0,VALID,24.2866,VALID,143,VALID,1.94805,
2009-08-10, 02:10:04,VALID,999.571,VALID,0,VALID,76.8532,VALID,0,VALID,24.3842,VALID,159,VALID,2.66094,
2009-08-10, 02:11:04,VALID,999.576,VALID,0,VALID,76.5022,VALID,0,VALID,24.4623,VALID,164,VALID,2.38398,
2009-08-10, 02:12:04,VALID,999.482,VALID,0,VALID,76.3115,VALID,0,VALID,24.4818,VALID,161,VALID,1.53711,
2009-08-10, 02:13:04,VALID,999.521,VALID,0,VALID,76.6853,VALID,0,VALID,24.5013,VALID,140,VALID,1.04258,
2009-08-10, 02:14:04,VALID,999.549,VALID,0,VALID,76.754,VALID,0,VALID,24.4428,VALID,165,VALID,2.15234,
2009-08-10, 02:15:04,VALID,999.507,VALID,0,VALID,76.6853,VALID,0,VALID,24.4428,VALID,156,VALID,1.76055,
2009-08-10, 02:16:04,VALID,999.52,VALID,0,VALID,76.8379,VALID,0,VALID,24.4233,VALID,150,VALID,1.06211,
2009-08-10, 02:17:04,VALID,999.556,VALID,0,VALID,77.0515,VALID,0,VALID,24.4037,VALID,155,VALID,1.36719,
2009-08-10, 02:18:04,VALID,999.563,VALID,0,VALID,77.0592,VALID,0,VALID,24.3647,VALID,159,VALID,1.70234,
2009-08-10, 02:19:04,VALID,999.555,VALID,0,VALID,76.9981,VALID,0,VALID,24.3861,VALID,154,VALID,1.73945,
2009-08-10, 02:20:04,VALID,999.567,VALID,0,VALID,76.9905,VALID,0,VALID,24.3842,VALID,163,VALID,1.15156,
2009-08-10, 02:21:04,VALID,999.552,VALID,0,VALID,76.8684,VALID,0,VALID,24.3842,VALID,180,VALID,2.01094,
2009-08-10, 02:22:04,VALID,999.529,VALID,0,VALID,76.2733,VALID,0,VALID,24.4623,VALID,165,VALID,2.29297,
2009-08-10, 02:23:04,VALID,999.553,VALID,0,VALID,76.1131,VALID,0,VALID,24.5404,VALID,135,VALID,1.76133,
2009-08-10, 02:24:04,VALID,999.552,VALID,0,VALID,76.1436,VALID,0,VALID,24.5209,VALID,157,VALID,1.46797,
2009-08-10, 02:25:05,VALID,999.568,VALID,0,VALID,76.2275,VALID,0,VALID,24.5209,VALID,151,VALID,1.5875,
2009-08-10, 02:26:05,VALID,999.551,VALID,0,VALID,76.4259,VALID,0,VALID,24.4818,VALID,156,VALID,1.36367,
2009-08-10, 02:27:05,VALID,999.585,VALID,0,VALID,76.609,VALID,0,VALID,24.4623,VALID,151,VALID,1.64688,
2009-08-10, 02:28:05,VALID,999.576,VALID,0,VALID,76.6243,VALID,0,VALID,24.4428,VALID,150,VALID,1.52656,
2009-08-10, 02:29:05,VALID,999.597,VALID,0,VALID,76.6319,VALID,0,VALID,24.4623,VALID,170,VALID,1.39102,
2009-08-10, 02:30:05,VALID,999.61,VALID,0,VALID,76.5785,VALID,0,VALID,24.4623,VALID,165,VALID,1.75195,
2009-08-10, 02:31:05,VALID,999.584,VALID,0,VALID,76.5709,VALID,0,VALID,24.4428,VALID,154,VALID,1.66016,
2009-08-10, 02:32:05,VALID,999.604,VALID,0,VALID,76.7692,VALID,0,VALID,24.4428,VALID,154,VALID,1.55,
2009-08-10, 02:33:05,VALID,999.573,VALID,0,VALID,76.8226,VALID,0,VALID,24.4233,VALID,151,VALID,1.3793,
2009-08-10, 02:34:05,VALID,999.528,VALID,0,VALID,76.7235,VALID,0,VALID,24.4428,VALID,156,VALID,1.61563,
2009-08-10, 02:35:05,VALID,999.506,VALID,0,VALID,76.6014,VALID,0,VALID,24.4428,VALID,149,VALID,1.84258,
2009-08-10, 02:36:05,VALID,999.501,VALID,0,VALID,76.548,VALID,0,VALID,24.4623,VALID,164,VALID,1.55313,
2009-08-10, 02:37:05,VALID,999.497,VALID,0,VALID,76.6472,VALID,0,VALID,24.4623,VALID,166,VALID,1.46719,
2009-08-10, 02:38:05,VALID,999.512,VALID,0,VALID,76.4717,VALID,0,VALID,24.4623,VALID,168,VALID,1.36758,
2009-08-10, 02:39:05,VALID,999.512,VALID,0,VALID,76.403,VALID,0,VALID,24.4837,VALID,158,VALID,1.07734,
2009-08-10, 02:40:05,VALID,999.504,VALID,0,VALID,76.3954,VALID,0,VALID,24.4818,VALID,149,VALID,1.69961,
2009-08-10, 02:41:05,VALID,999.531,VALID,0,VALID,76.3954,VALID,0,VALID,24.5013,VALID,140,VALID,1.09063,
2009-08-10, 02:42:05,VALID,999.547,VALID,0,VALID,76.4717,VALID,0,VALID,24.5013,VALID,152,VALID,1.30313,
2009-08-10, 02:43:05,VALID,999.549,VALID,0,VALID,76.7006,VALID,0,VALID,24.4623,VALID,172,VALID,1.12305,
2009-08-10, 02:44:05,VALID,999.52,VALID,0,VALID,76.7692,VALID,0,VALID,24.4428,VALID,175,VALID,1.54805,
2009-08-10, 02:45:05,VALID,999.557,VALID,0,VALID,76.7006,VALID,0,VALID,24.4428,VALID,167,VALID,1.33711,
2009-08-10, 02:46:05,VALID,999.529,VALID,0,VALID,76.7769,VALID,0,VALID,24.4428,VALID,153,VALID,1.63555,
2009-08-10, 02:47:05,VALID,999.522,VALID,0,VALID,76.8074,VALID,0,VALID,24.4428,VALID,159,VALID,1.3082,
2009-08-10, 02:48:05,VALID,999.541,VALID,0,VALID,76.7006,VALID,0,VALID,24.4623,VALID,164,VALID,1.84258,
2009-08-10, 02:49:05,VALID,999.515,VALID,0,VALID,76.7006,VALID,0,VALID,24.4623,VALID,165,VALID,1.41406,
2009-08-10, 02:50:05,VALID,999.543,VALID,0,VALID,76.6777,VALID,0,VALID,24.4623,VALID,153,VALID,1.84766,
2009-08-10, 02:51:05,VALID,999.553,VALID,0,VALID,76.5098,VALID,0,VALID,24.4818,VALID,164,VALID,1.77148,
2009-08-10, 02:52:05,VALID,999.536,VALID,0,VALID,76.4183,VALID,0,VALID,24.5013,VALID,157,VALID,1.11641,
2009-08-10, 02:53:05,VALID,999.556,VALID,0,VALID,76.5251,VALID,0,VALID,24.5013,VALID,162,VALID,1.1625,
2009-08-10, 02:54:05,VALID,999.547,VALID,0,VALID,76.5785,VALID,0,VALID,24.4818,VALID,173,VALID,1.2707,
2009-08-10, 02:55:05,VALID,999.542,VALID,0,VALID,76.5251,VALID,0,VALID,24.5013,VALID,169,VALID,1.66602,
2009-08-10, 02:56:05,VALID,999.524,VALID,0,VALID,76.5175,VALID,0,VALID,24.4818,VALID,166,VALID,1.10039,
2009-08-10, 02:57:05,VALID,999.501,VALID,0,VALID,76.5022,VALID,0,VALID,24.5013,VALID,161,VALID,1.1,
2009-08-10, 02:58:05,VALID,999.562,VALID,0,VALID,76.4335,VALID,0,VALID,24.5013,VALID,154,VALID,1.31406,
2009-08-10, 02:59:05,VALID,999.556,VALID,0,VALID,76.5098,VALID,0,VALID,24.5209,VALID,148,VALID,1.26758,
2009-08-10, 03:00:05,VALID,999.542,VALID,0,VALID,76.5709,VALID,0,VALID,24.5013,VALID,154,VALID,1.07734,
2009-08-10, 03:01:05,VALID,999.554,VALID,0,VALID,76.7311,VALID,0,VALID,24.4818,VALID,160,VALID,1.43906,
2009-08-10, 03:02:05,VALID,999.574,VALID,0,VALID,76.9066,VALID,0,VALID,24.4623,VALID,159,VALID,1.85117,
2009-08-10, 03:03:05,VALID,999.527,VALID,0,VALID,77.1965,VALID,0,VALID,24.4642,VALID,145,VALID,1.48164,
2009-08-10, 03:04:05,VALID,999.512,VALID,0,VALID,77.3491,VALID,0,VALID,24.4037,VALID,149,VALID,1.27891,
2009-08-10, 03:05:05,VALID,999.536,VALID,0,VALID,77.5398,VALID,0,VALID,24.3452,VALID,157,VALID,0.892187,
2009-08-10, 03:06:05,VALID,999.513,VALID,0,VALID,77.494,VALID,0,VALID,24.3257,VALID,154,VALID,1.18398,
2009-08-10, 03:07:05,VALID,999.525,VALID,0,VALID,77.4178,VALID,0,VALID,24.3257,VALID,151,VALID,1.17695,
2009-08-10, 03:08:05,VALID,999.542,VALID,0,VALID,77.3109,VALID,0,VALID,24.3257,VALID,155,VALID,1.95977,
2009-08-10, 03:09:05,VALID,999.561,VALID,0,VALID,76.9981,VALID,0,VALID,24.3452,VALID,147,VALID,1.88398,
2009-08-10, 03:10:05,VALID,999.555,VALID,0,VALID,76.9371,VALID,0,VALID,24.4233,VALID,148,VALID,1.32031,
2009-08-10, 03:11:05,VALID,999.564,VALID,0,VALID,76.9371,VALID,0,VALID,24.4037,VALID,172,VALID,1.58242,
2009-08-10, 03:12:05,VALID,999.524,VALID,0,VALID,76.7921,VALID,0,VALID,24.4233,VALID,160,VALID,1.61367,
2009-08-10, 03:13:05,VALID,999.552,VALID,0,VALID,76.4946,VALID,0,VALID,24.4818,VALID,160,VALID,1.64219,
2009-08-10, 03:14:05,VALID,999.502,VALID,0,VALID,76.4564,VALID,0,VALID,24.5013,VALID,153,VALID,1.20625,
2009-08-10, 03:15:05,VALID,999.529,VALID,0,VALID,76.5175,VALID,0,VALID,24.5032,VALID,165,VALID,1.29453,
2009-08-10, 03:16:05,VALID,999.518,VALID,0,VALID,76.4488,VALID,0,VALID,24.5013,VALID,165,VALID,1.64219,
2009-08-10, 03:17:05,VALID,999.456,VALID,0,VALID,76.1207,VALID,0,VALID,24.5618,VALID,161,VALID,1.87109,
2009-08-10, 03:18:05,VALID,999.435,VALID,0,VALID,75.8384,VALID,0,VALID,24.5794,VALID,170,VALID,1.72852,
2009-08-10, 03:19:05,VALID,999.437,VALID,0,VALID,75.7011,VALID,0,VALID,24.638,VALID,178,VALID,1.48906,
2009-08-10, 03:20:05,VALID,999.413,VALID,0,VALID,75.6477,VALID,0,VALID,24.638,VALID,173,VALID,1.40898,
2009-08-10, 03:21:05,VALID,999.387,VALID,0,VALID,75.579,VALID,0,VALID,24.6166,VALID,177,VALID,1.72734,
2009-08-10, 03:22:05,VALID,999.392,VALID,0,VALID,75.579,VALID,0,VALID,24.6575,VALID,165,VALID,1.52461,
2009-08-10, 03:23:05,VALID,999.381,VALID,0,VALID,75.5561,VALID,0,VALID,24.638,VALID,162,VALID,1.69414,
2009-08-10, 03:24:05,VALID,999.343,VALID,0,VALID,75.5409,VALID,0,VALID,24.6184,VALID,175,VALID,1.94414,
2009-08-10, 03:25:05,VALID,999.339,VALID,0,VALID,75.4875,VALID,0,VALID,24.6575,VALID,159,VALID,1.43359,
2009-08-10, 03:26:05,VALID,999.364,VALID,0,VALID,75.5561,VALID,0,VALID,24.6184,VALID,165,VALID,1.17109,
2009-08-10, 03:27:05,VALID,999.372,VALID,0,VALID,75.5714,VALID,0,VALID,24.6184,VALID,165,VALID,1.52773,
2009-08-10, 03:28:05,VALID,999.297,VALID,0,VALID,75.6248,VALID,0,VALID,24.5989,VALID,165,VALID,1.05469,
2009-08-10, 03:29:05,VALID,999.35,VALID,0,VALID,75.6858,VALID,0,VALID,24.5794,VALID,172,VALID,0.791016,
2009-08-10, 03:30:05,VALID,999.376,VALID,0,VALID,75.8155,VALID,0,VALID,24.5599,VALID,159,VALID,1.24648,
2009-08-10, 03:31:05,VALID,999.398,VALID,0,VALID,75.9223,VALID,0,VALID,24.5209,VALID,156,VALID,0.808984,
2009-08-10, 03:32:05,VALID,999.401,VALID,0,VALID,76.2275,VALID,0,VALID,24.4623,VALID,164,VALID,0.928906,
2009-08-10, 03:33:05,VALID,999.409,VALID,0,VALID,76.4869,VALID,0,VALID,24.4233,VALID,146,VALID,1.20352,
2009-08-10, 03:34:05,VALID,999.427,VALID,0,VALID,76.5709,VALID,0,VALID,24.4037,VALID,148,VALID,1.275,
2009-08-10, 03:35:05,VALID,999.442,VALID,0,VALID,76.5098,VALID,0,VALID,24.4233,VALID,144,VALID,1.09375,
2009-08-10, 03:36:05,VALID,999.423,VALID,0,VALID,76.4488,VALID,0,VALID,24.4233,VALID,143,VALID,1.32187,
2009-08-10, 03:37:05,VALID,999.481,VALID,0,VALID,76.6243,VALID,0,VALID,24.4233,VALID,143,VALID,1.41328,
2009-08-10, 03:38:05,VALID,999.438,VALID,0,VALID,76.8303,VALID,0,VALID,24.3842,VALID,123,VALID,1.20117,
2009-08-10, 03:39:05,VALID,999.422,VALID,0,VALID,76.9447,VALID,0,VALID,24.3647,VALID,116,VALID,1.36563,
2009-08-10, 03:40:05,VALID,999.432,VALID,0,VALID,77.1049,VALID,0,VALID,24.3257,VALID,137,VALID,1.39492,
2009-08-10, 03:41:05,VALID,999.429,VALID,0,VALID,77.1583,VALID,0,VALID,24.2866,VALID,137,VALID,1.41992,
2009-08-10, 03:42:05,VALID,999.453,VALID,0,VALID,77.0821,VALID,0,VALID,24.2866,VALID,140,VALID,1.64766,
2009-08-10, 03:43:05,VALID,999.452,VALID,0,VALID,76.7998,VALID,0,VALID,24.3257,VALID,133,VALID,1.68477,
2009-08-10, 03:44:05,VALID,999.48,VALID,0,VALID,76.7463,VALID,0,VALID,24.3647,VALID,150,VALID,0.867969,
2009-08-10, 03:45:05,VALID,999.523,VALID,0,VALID,76.8226,VALID,0,VALID,24.3452,VALID,154,VALID,1.08633,
2009-08-10, 03:46:05,VALID,999.536,VALID,0,VALID,76.815,VALID,0,VALID,24.3257,VALID,152,VALID,1.37656,